This is the latest recevied weather packets stored in our database for station/object EA1CUE-WX. If no packets are shown the sender has not sent any weather packets the latest 10 day(s).
| Time | Temp. | Humidity | Pressure | Rain* | Wind** | Luminosity | Snow |
|---|---|---|---|---|---|---|---|
| 1778094526 | 11.67° C | 46% | 1011.6 hPa | 0 mm | - | - | - |
| 1778094226 | 11.67° C | 48% | 1011.5 hPa | 0 mm | - | - | - |
| 1778093926 | 11.67° C | 48% | 1011.5 hPa | 0 mm | - | - | - |
| 1778093626 | 11.67° C | 46% | 1011.5 hPa | 0 mm | - | - | - |
| 1778093326 | 11.67° C | 46% | 1011.5 hPa | 0 mm | - | - | - |
| 1778093026 | 12.22° C | 43% | 1011.5 hPa | 0 mm | - | - | - |
| 1778092726 | 12.22° C | 45% | 1011.5 hPa | 0 mm | - | - | - |
| 1778092426 | 12.22° C | 47% | 1011.5 hPa | 0 mm | - | - | - |
| 1778092126 | 12.78° C | 47% | 1011.4 hPa | 0 mm | - | - | - |
| 1778091826 | 12.22° C | 49% | 1011.5 hPa | 0 mm | - | - | - |
| 1778091526 | 12.22° C | 50% | 1011.5 hPa | 0 mm | - | - | - |
| 1778091226 | 12.22° C | 49% | 1011.6 hPa | 0 mm | - | - | - |
| 1778090926 | 12.78° C | 50% | 1011.6 hPa | 0 mm | - | - | - |
| 1778090626 | 12.78° C | 50% | 1011.7 hPa | 0 mm | - | - | - |
| 1778090326 | 13.33° C | 50% | 1011.7 hPa | 0 mm | - | - | - |
| 1778090026 | 13.33° C | 50% | 1011.7 hPa | 0 mm | - | - | - |
| 1778089726 | 13.33° C | 50% | 1011.7 hPa | 0 mm | - | - | - |
| 1778089426 | 13.33° C | 49% | 1011.6 hPa | 0 mm | - | - | - |
| 1778089126 | 13.89° C | 49% | 1011.6 hPa | 0 mm | - | - | - |
| 1778088826 | 13.89° C | 49% | 1011.6 hPa | 0 mm | - | - | - |
| 1778088526 | 13.89° C | 49% | 1011.6 hPa | 0 mm | - | - | - |
| 1778088226 | 13.89° C | 48% | 1011.6 hPa | 0 mm | - | - | - |
| 1778087926 | 13.89° C | 48% | 1011.5 hPa | 0 mm | - | - | - |
| 1778087626 | 13.33° C | 49% | 1011.6 hPa | 0 mm | - | - | - |
| 1778087326 | 13.33° C | 48% | 1011.6 hPa | 0 mm | - | - | - |
* Rain latest hour (hover to see other rain measurements)
** Current wind speed in m/s (hover to see current wind gust speed)